SP6TSE-13 Weather Reports


Display with metric or nautical units.
time (UTC)temp
F
wind
direction
speed
MPH
gust
MPH
rain 1hr
in
rain 24hr
in
rain mn
in
humidity
%
barometer
mb
20260506233037 0 16.0 32.0 0.00 0.00 0.00
20260506232037 0 16.0 32.0 0.00 0.00 0.00
20260506231037 0 16.0 32.0 0.00 0.00 0.00
20260506230037 0 16.0 32.0 0.00 0.00 0.00
20260506225037 0 16.0 32.0 0.00 0.00 0.00
20260506224037 0 16.0 32.0 0.00 0.00 0.00
20260506223038 0 16.0 32.0 0.00 0.00 0.00
20260506222037 0 16.0 32.0 0.00 0.00 0.00
20260506221037 0 16.0 32.0 0.00 0.00 0.00
20260506220037 0 24.0 40.0 0.00 0.00 0.00
20260506215037 0 24.0 40.0 0.00 0.00 0.00
20260506214037 0 24.0 40.0 0.00 0.00 0.00
20260506213037 0 24.0 40.0 0.00 0.00 0.00
20260506212037 0 24.0 40.0 0.00 0.00 0.00
20260506211037 0 24.0 40.0 0.00 0.00 0.00
20260506210037 0 16.0 32.0 0.00 0.00 0.00
20260506205037 0 16.0 32.0 0.00 0.00 0.00
20260506204037 0 16.0 32.0 0.00 0.00 0.00
20260506203038 0 16.0 32.0 0.00 0.00 0.00
20260506190908 0 24.0 40.0 0.00 0.00 0.00
20260506185908 0 16.0 32.0 0.00 0.00 0.00
20260506183834 65 16.0 32.0 0.00 0.00 0.00 72 980.9
20260506182834 65 16.0 32.0 0.00 0.00 0.00 72 980.9
20260506181834 65 16.0 32.0 0.00 0.00 0.00 72 980.9
20260506180834 65 16.0 40.0 0.00 0.00 0.00 72 980.9
20260506175834 65 16.0 40.0 0.00 0.00 0.00 72 980.9
20260506174833 65 16.0 40.0 0.00 0.00 0.00 72 980.9
20260506173834 65 16.0 40.0 0.00 0.00 0.00 72 980.9
20260506172834 65 16.0 40.0 0.00 0.00 0.00 72 980.9
20260506171834 67 16.0 40.0 0.00 0.00 0.00 63 980.7
20260506170834 67 16.0 40.0 0.00 0.00 0.00 63 980.7
20260506165834 67 16.0 40.0 0.00 0.00 0.00 63 980.7
20260506164833 67 24.0 56.0 0.00 0.00 0.00 63 980.7
20260506162530 68 24.0 56.0 0.00 0.00 0.00 63 980.9
20260506161529 68 32.0 56.0 0.00 0.00 0.00 63 980.9
20260506160529 68 32.0 56.0 0.00 0.00 0.00 63 980.9
20260506155530 71 32.0 56.0 0.00 0.00 0.00 43 981.5
20260506154529 71 32.0 56.0 0.00 0.00 0.00 43 981.5
20260506153529 71 32.0 56.0 0.00 0.00 0.00 43 981.5
20260506152530 71 32.0 56.0 0.00 0.00 0.00 43 981.5
20260506151529 71 32.0 64.0 0.00 0.00 0.00 43 981.5
20260506150529 71 32.0 64.0 0.00 0.00 0.00 43 981.5
20260506145529 71 32.0 64.0 0.00 0.00 0.00 43 981.5
20260506144529 71 32.0 64.0 0.00 0.00 0.00 43 981.5
20260506143529 71 32.0 64.0 0.00 0.00 0.00 43 981.5
20260506142529 71 32.0 64.0 0.00 0.00 0.00 43 981.5
20260506141529 71 40.0 72.0 0.00 0.00 0.00 43 981.5
20260506140530 71 40.0 72.0 0.00 0.00 0.00 43 981.5
20260506135529 0 40.0 72.0 0.00 0.00 0.00
20260506134529 0 40.0 72.0 0.00 0.00 0.00
20260506133529 0 40.0 72.0 0.00 0.00 0.00
20260506131629 73 40.0 72.0 0.00 0.00 0.00 42 981.7
20260506130628 70 40.0 72.0 0.00 0.00 0.00 47 982.1
20260506125628 70 48.0 81.0 0.00 0.00 0.00 47 982.1
20260506124628 70 48.0 81.0 0.00 0.00 0.00 47 982.1
20260506123629 70 48.0 81.0 0.00 0.00 0.00 47 982.1
20260506122628 69 48.0 81.0 0.00 0.00 0.00 53 981.8
20260506121628 69 48.0 81.0 0.00 0.00 0.00 53 981.8
20260506120629 69 48.0 81.0 0.00 0.00 0.00 53 981.8
20260506115628 69 40.0 72.0 0.00 0.00 0.00 53 981.8
20260506114628 66 40.0 72.0 0.00 0.00 0.00 53 981.7
20260506113628 66 40.0 81.0 0.00 0.00 0.00 53 981.7
20260506112629 66 40.0 81.0 0.00 0.00 0.00 53 981.7
20260506111629 66 48.0 81.0 0.00 0.00 0.00 53 981.7
20260506110628 66 48.0 81.0 0.00 0.00 0.00 53 981.7
20260506105628 66 48.0 81.0 0.00 0.00 0.00 53 981.7
20260506104629 66 48.0 81.0 0.00 0.00 0.00 53 981.7
20260506103629 66 40.0 72.0 0.00 0.00 0.00 53 981.7
20260506102628 66 40.0 72.0 0.00 0.00 0.00 53 981.7
20260506101628 66 40.0 72.0 0.00 0.00 0.00 53 981.7
20260506100629 66 40.0 72.0 0.00 0.00 0.00 53 981.7
20260506095628 66 48.0 81.0 0.00 0.00 0.00 53 981.7
20260506094629 66 48.0 81.0 0.00 0.00 0.00 53 981.7
20260506093628 69 48.0 81.0 0.00 0.00 0.00 54 981.4
20260506092628 69 48.0 81.0 0.00 0.00 0.00 54 981.4
20260506091628 69 48.0 72.0 0.00 0.00 0.00 54 981.4
20260506090629 69 48.0 72.0 0.00 0.00 0.00 54 981.4
20260506085629 66 40.0 64.0 0.00 0.00 0.00 63 981.5
20260506084628 66 40.0 64.0 0.00 0.00 0.00 63 981.5
20260506083628 66 40.0 64.0 0.00 0.00 0.00 63 981.5
20260506082628 66 40.0 64.0 0.00 0.00 0.00 63 981.5
20260506081628 64 40.0 64.0 0.00 0.00 0.00 77 981.6
20260506080629 64 40.0 64.0 0.00 0.00 0.00 77 981.6
20260506072628 58 24.0 48.0 0.00 0.00 0.00 100 981.4
20260506071629 58 24.0 48.0 0.00 0.00 0.00 100 981.4
20260506070628 58 24.0 48.0 0.00 0.00 0.00 100 981.4
20260506061628 58 16.0 40.0 0.00 0.00 0.00 100 981.4
20260506060629 52 16.0 40.0 0.00 0.00 0.00 100 981.2
20260506050628 52 8.0 24.0 0.00 0.00 0.00 100 981.2
20260506044628 54 8.0 24.0 0.00 0.00 0.00 100 981.6
20260506043628 54 8.0 24.0 0.00 0.00 0.00 100 981.6
20260506042628 54 8.0 24.0 0.00 0.00 0.00 100 981.6
20260506041629 54 8.0 24.0 0.00 0.00 0.00 100 981.6
20260506040628 54 8.0 24.0 0.00 0.00 0.00 100 981.6
20260506035629 54 16.0 32.0 0.00 0.00 0.00 100 981.6
20260506034629 54 16.0 32.0 0.00 0.00 0.00 100 981.6
20260506033628 54 16.0 32.0 0.00 0.00 0.00 100 981.6
20260506032628 54 16.0 32.0 0.00 0.00 0.00 100 981.6
20260506031628 54 16.0 32.0 0.00 0.00 0.00 100 981.6
20260506030628 54 16.0 32.0 0.00 0.00 0.00 100 981.6
20260506025628 54 16.0 32.0 0.00 0.00 0.00 100 981.6
20260506024628 54 16.0 32.0 0.00 0.00 0.00 100 981.6
20260506023628 54 16.0 32.0 0.00 0.00 0.00 100 981.6
20260506022629 54 16.0 32.0 0.00 0.00 0.00 100 981.6
20260506021628 54 16.0 32.0 0.00 0.00 0.00 100 981.6
20260506020628 54 16.0 32.0 0.00 0.00 0.00 100 981.6
20260506015628 54 16.0 32.0 0.00 0.00 0.00 100 981.6
20260506014628 54 16.0 32.0 0.00 0.00 0.00 100 981.6
20260506013628 54 16.0 32.0 0.00 0.00 0.00 100 981.6
20260506012628 54 16.0 32.0 0.00 0.00 0.00 100 981.6
20260506011628 54 16.0 32.0 0.00 0.00 0.00 100 981.6
20260506010628 54 16.0 32.0 0.00 0.00 0.00 100 981.6
20260506005628 54 16.0 32.0 0.00 0.00 0.00 100 981.6
20260506004628 54 16.0 32.0 0.00 0.00 0.00 100 981.6
20260506003628 55 16.0 32.0 0.00 0.00 0.00 100 981.6
20260506002628 55 16.0 32.0 0.00 0.00 0.00 100 981.6
20260506001628 55 16.0 32.0 0.00 0.00 0.00 100 981.6
20260506000628 55 16.0 32.0 0.00 0.00 0.00 100 981.6
20260505235628 55 16.0 32.0 0.00 0.00 0.00 100 981.6
20260505234628 55 16.0 32.0 0.00 0.00 0.00 100 981.6